Weather History for KMBS - August, 2013

Change the Weather History Date:

Saturday, August 24, 2013

  Actual Average Record
Temperature  
Mean Temperature 68 °F 68 °F  
Max Temperature 83 °F 79 °F 91 °F (1998)
Min Temperature 53 °F 57 °F 50 °F (2003)
Degree Days  
Heating Degree Days 0    
Month to date heating degree days 10  
Since 1 June heating degree days 74  
Since 1 July heating degree days 21  
Cooling Degree Days 3    
Month to date cooling degree days 89  
Year to date cooling degree days 533  
Since 1 June cooling degree days 459  
Growing Degree Days 18 (Base 50)    
Moisture  
Dew Point 54 °F    
Average Humidity 64    
Maximum Humidity 93    
Minimum Humidity 34    
Precipitation  
Precipitation 0.00 in 0.10 in 0.83 in (1997)
Month to date precipitation 1.08 2.50  
Year to date precipitation 23.05 19.71  
Snow  
Snow 0.00 in - - ()
Month to date snowfall 0.0  
Since 1 June snowfall 0.0  
Since 1 July snowfall 0.0  
Snow Depth 0.00 in    
Sea Level Pressure  
Sea Level Pressure 30.28 in    
Wind  
Wind Speed 5 mph (SSE)    
Max Wind Speed 13 mph    
Max Gust Speed 17 mph    
Visibility 10 miles    
Events      
T = Trace of Precipitation, MM = Missing Value Source: NWS Daily Summary

Daily Weather History Graph

Daily Weather History Graph

Search for Another Location

Airport or City:

Trip Planner

Search our weather history database for the weather conditions in past years. The results will help you decide how hot, cold, wet, or windy it might be!

Date:

Astronomy

Aug. 24, 2013 Rise Set
Actual Time 6:51 AM EDT 8:24 PM EDT
Civil Twilight 6:21 AM EDT 8:54 PM EDT
Nautical Twilight 5:44 AM EDT 9:31 PM EDT
Astronomical Twilight 5:05 AM EDT 10:10 PM EDT
Moon 10:08 PM EDT (8/24) 10:59 AM EDT (8/24)
Length of Visible Light 14h 33m
Length of Day
13h 33m
Waning Gibbous, 84% of the Moon is Illuminated
Aug 24
Waning Gibbous
Aug 28
Last Quarter
Sep 5
New
Sep 12
First Quarter
Sep 19
Full

Hourly Weather History & Observations

Time (EDT) Temp. Heat Index Dew Point Humidity Pressure Visibility Wind Dir Wind Speed Gust Speed Precip Events Conditions
12:53 AM 60.1 °F - 54.0 °F 80% 30.24 in 10.0 mi East 3.5 mph - N/A   Clear
1:53 AM 59.0 °F - 53.1 °F 81% 30.24 in 10.0 mi East 3.5 mph - N/A   Clear
2:53 AM 57.0 °F - 53.1 °F 87% 30.25 in 10.0 mi Calm Calm - N/A   Clear
3:53 AM 57.0 °F - 53.1 °F 87% 30.26 in 10.0 mi Calm Calm - N/A   Clear
4:53 AM 55.0 °F - 51.1 °F 86% 30.27 in 10.0 mi Calm Calm - N/A   Clear
5:53 AM 54.0 °F - 51.1 °F 90% 30.29 in 10.0 mi Calm Calm - N/A   Clear
6:53 AM 54.0 °F - 52.0 °F 93% 30.31 in 10.0 mi Calm Calm - N/A   Clear
7:53 AM 57.0 °F - 54.0 °F 89% 30.32 in 10.0 mi Calm Calm - N/A   Clear
8:53 AM 63.0 °F - 57.0 °F 81% 30.33 in 10.0 mi Calm Calm - N/A   Clear
9:53 AM 68.0 °F - 57.0 °F 68% 30.34 in 10.0 mi South 3.5 mph - N/A   Clear
10:53 AM 73.9 °F - 55.0 °F 52% 30.32 in 10.0 mi South 5.8 mph - N/A   Clear
11:53 AM 75.9 °F - 55.9 °F 50% 30.32 in 10.0 mi Calm Calm - N/A   Clear
12:53 PM 78.1 °F - 55.0 °F 45% 30.31 in 10.0 mi South 3.5 mph - N/A   Clear
1:53 PM 80.1 °F 80.0 °F 54.0 °F 40% 30.29 in 10.0 mi South 9.2 mph - N/A   Partly Cloudy
2:53 PM 81.0 °F 80.5 °F 54.0 °F 39% 30.29 in 10.0 mi SSW 6.9 mph - N/A   Partly Cloudy
3:53 PM 82.0 °F 81.2 °F 53.1 °F 37% 30.27 in 10.0 mi West 8.1 mph - N/A   Partly Cloudy
4:53 PM 82.0 °F - 52.0 °F 35% 30.26 in 10.0 mi SSW 5.8 mph - N/A   Clear
5:53 PM 82.0 °F 81.3 °F 54.0 °F 38% 30.26 in 10.0 mi South 8.1 mph - N/A   Clear
6:53 PM 81.0 °F 80.5 °F 54.0 °F 39% 30.25 in 10.0 mi SSE 10.4 mph - N/A   Clear
7:53 PM 78.1 °F - 55.0 °F 45% 30.26 in 10.0 mi SSE 5.8 mph - N/A   Clear
8:53 PM 72.0 °F - 55.0 °F 55% 30.26 in 10.0 mi SE 5.8 mph - N/A   Clear
9:53 PM 71.1 °F - 55.0 °F 57% 30.26 in 10.0 mi SSE 6.9 mph - N/A   Clear
10:53 PM 70.0 °F - 57.0 °F 63% 30.26 in 10.0 mi SSE 9.2 mph - N/A   Clear
11:53 PM 69.1 °F - 57.9 °F 68% 30.26 in 10.0 mi South 10.4 mph - N/A   Clear